Regional Weather Roundup
Issued by NWS

Home | Current Version | Previous Version | Text Only | Print | Product List | Glossary On
Versions: 1 2 3 4 5 6 7 8 9 10 11 12 13 14 15 16 17 18 19 20 21 22 23 24 25 26 27 28 29 30 31 32 33 34 35 36 37 38 39 40 41 42 43 44 45 46 47 48 49 50
000
ASUS44 KJAN 291310
RWRMS

MISSISSIPPI HOURLY WEATHER ROUNDUP
NATIONAL WEATHER SERVICE JACKSON MS
800 AM CDT SAT AUG 29 2015

NOTE: "FAIR: INDICATES FEW OR NO CLOUDS BELOW 12,000 FEET WITH NO
SIGNIFICANT WEATHER AND/OR OBSTRUCTIONS TO VISIBILITY.

MSZ001>002-007>008-010>013-018>021-025>028-034>036-291400-
NORTHWEST MISSISSIPPI

CITY           SKY/WX    TMP DP  RH WIND       PRES   REMARKS
CLARKSDALE     FAIR      72  72 100 SE6       30.07S
CLEVELAND      FAIR      73  69  85 CALM      30.05R
GREENWOOD      MOSUNNY   73  66  78 SE7       30.06R
GREENVILLE     SUNNY     69  64  84 CALM      30.05R
OLIVE BRANCH   MOSUNNY   72  72 100 SE7       30.08S
OXFORD         FAIR      72  66  83 SE7       30.10S
TUNICA         SUNNY     70  68  94 CALM      30.08R
$$

MSZ003>006-009-014>017-022>024-029>033-037>039-291400-
NORTHEAST MISSISSIPPI

CITY           SKY/WX    TMP DP  RH WIND       PRES   REMARKS
COLUMBUS AFB   MOSUNNY   73  69  87 SE10      30.09R
CORINTH        FAIR      72  68  88 CALM      30.09S
GOLDN TRIANGLE PTSUNNY   73  66  78 SE9       30.09R
STARKVILLE     FAIR      72  70  94 SE6       30.09S
TUPELO         MOSUNNY   73  69  87 S6        30.09S
$$

MSZ040-058-291400-
CENTRAL MISSISSIPPI

CITY           SKY/WX    TMP DP  RH WIND       PRES   REMARKS
JACKSON INTL   MOSUNNY   73  67  81 SE6       30.08R
JACKSON HAWKNS PTSUNNY   73  67  81 SE5       30.08R
MERIDIAN KEY   MOSUNNY   73  68  84 CALM      30.10R
MERIDIAN NAS   PTSUNNY   72  70  93 SE5       30.11R
VICKSBURG      MOSUNNY   72  67  84 S5        30.06R
$$

MSZ059>079-291400-
SOUTH MISSISSIPPI

CITY           SKY/WX    TMP DP  RH WIND       PRES   REMARKS
BROOKHAVEN       N/A     66  64  94 CALM      30.10R
HATTIESBURG    SUNNY     71  67  87 CALM      30.09R
MCCOMB         SUNNY     71  67  87 NE3       30.07R
NATCHEZ        MOSUNNY   70  64  83 CALM      30.07S
PINE BELT      SUNNY     72  63  73 CALM      30.10R
$$

MSZ080>082-291400-
COASTAL MISSISSIPPI

CITY           SKY/WX    TMP DP  RH WIND       PRES   REMARKS
BAY ST LOUIS   SUNNY     72  64  78 CALM      30.06R
BILOXI         SUNNY     74  69  81 N3        30.06R
PASCAGOULA     MOSUNNY   73  69  87 NE3       30.07R
GULFPORT       SUNNY     76  68  76 NE5       30.06R
$$


USA.gov is the U.S. government's official web portal to all federal, state and local government web resources and services.